This demonstration page uses our WeatherBlox Daily Observations layout. Learn more.

Left ArrowRight Arrow

44.8408, -93.29828

Hourly Observations for March 26, 2018

Temp ( °F °C ) Dew Point ( °F °C ) Humidity (%) Winds ( mph kmh ) Pressure ( in mb ) Visibility ( mi km ) Precip ( " mm )
12:53 am 00:53 Cloudy 41 5 19 -7.2 41 41 SSE 15 24 30.21 1023 10 16 0.00 0.00
1:53 am 01:53 Windy with Snow Likely 37 2.8 27 -2.8 67 67 S 21 33 30.24 1024 7 11 0.00 0.03
2:01 am 02:01 Cloudy with Light Snow 35 1.7 29 -1.7 78 78 S 18 30 30.24 1024 2 3 0.00 0.03
2:08 am 02:08 Cloudy with Light Snow 34 1.1 30 -1.1 85 85 S 17 28 30.24 1024 2 3 0.00 0.03
2:14 am 02:14 Cloudy with Light Snow 34 1.1 31 -0.6 89 89 SSE 13 20 30.24 1024 1 2 0.00 0.03
3:53 am 03:53 Cloudy with Light Snow 32 0 31 -0.6 96 96 ESE 13 20 30.21 1023 9 14 0.01 0.25
4:53 am 04:53 Cloudy with Light Snow 32 0 29 -1.7 88 88 ESE 10 17 30.21 1023 9 14 0.00 0.03
5:53 am 05:53 Cloudy with Light Snow 32 0 28 -2.2 85 85 ESE 10 17 30.20 1023 7 11 0.01 0.25
6:53 am 06:53 Cloudy 32 0 25 -3.9 75 75 ESE 14 22 30.18 1022 10 16 0.01 0.25
7:53 am 07:53 Cloudy 33 0.6 24 -4.4 70 70 ESE 13 20 30.16 1021 10 16 0.00 0.00
8:53 am 08:53 Cloudy 32 0 23 -5 69 69 SE 14 22 30.19 1022 10 16 0.00 0.00
9:53 am 09:53 Cloudy with Light Rain 33 0.6 23 -5 66 66 ESE 13 20 30.16 1021 10 16 0.00 0.03
10:53 am 10:53 Cloudy 35 1.7 23 -5 61 61 SE 20 31 30.11 1020 10 16 0.00 0.03
11:53 am 11:53 Cloudy 36 2.2 24 -4.4 62 62 ESE 10 17 30.10 1019 10 16 0.00 0.00
12:53 pm 12:53 Cloudy 36 2.2 24 -4.4 62 62 SSE 5 7 30.14 1021 10 16 0.00 0.00
1:53 pm 13:53 Cloudy 37 2.8 25 -3.9 62 62 ESE 13 20 30.08 1019 10 16 0.00 0.00
2:53 pm 14:53 Cloudy 36 2.2 27 -2.8 70 70 ESE 8 13 30.08 1019 9 14 0.00 0.03
3:04 pm 15:04 Cloudy with Light Rain 37 2.8 28 -2.2 70 70 SE 10 17 30.09 1019 7 11 0.00 0.03
3:53 pm 15:53 Cloudy 36 2.2 28 -2.2 73 73 E 8 13 30.06 1018 10 16 0.01 0.25
4:53 pm 16:53 Cloudy with Light Rain 35 1.7 30 -1.1 82 82 ENE 9 15 30.04 1017 6 10 0.00 0.03
5:53 pm 17:53 Cloudy with Light Rain 34 1.1 33 0.6 97 97 ENE 7 11 30.04 1017 5 8 0.10 2.54
6:53 pm 18:53 Cloudy 35 1.7 32 0 89 89 ENE 8 13 30.02 1017 10 16 0.03 0.76
7:53 pm 19:53 Cloudy with Light Rain 35 1.7 33 0.6 93 93 E 9 15 30.01 1016 4 6 0.05 1.27
8:53 pm 20:53 Cloudy with Light Rain 35 1.7 33 0.6 93 93 E 6 9 30.03 1017 7 11 0.03 0.76
9:42 pm 21:42 Cloudy with Light Rain 34 1.1 34 1.1 100 100 ENE 6 9 30.03 1017 5 8 0.03 0.76
9:53 pm 21:53 Cloudy with Light Rain 34 1.1 34 1.1 100 100 NE 3 6 30.02 1017 4 6 0.03 0.76
10:39 pm 22:39 Cloudy with Rain 34 1.1 34 1.1 100 100 E 5 7 30.00 1016 3 4 0.01 0.25
10:48 pm 22:48 Cloudy with Light Rain 34 1 34 1 100 100 Calm 30.00 1016 3 4 0.03 0.76
10:53 pm 22:53 Cloudy with Light Rain 34 1.1 34 1.1 100 100 NE 3 6 30.00 1016 3 4 0.04 1.02
11:11 pm 23:11 Cloudy with Drizzle 34 1.1 34 1.1 100 100 Calm 30.00 1016 3 4 0.00 0.03
11:34 pm 23:34 Cloudy with Drizzle 34 1.1 34 1.1 100 100 Calm 30.00 1016 3 5 0.00 0.03
11:53 pm 23:53 Cloudy with Drizzle 34 1.1 34 1.1 100 100 Calm 29.99 1016 4 6 0.00 0.03

Powered by AerisWeather